This demonstration page uses our WeatherBlox Daily Observations layout. Learn more.

Left ArrowRight Arrow

39.08367, -84.50855

Hourly Observations for November 4, 2018

Temp ( °F °C ) Dew Point ( °F °C ) Humidity (%) Winds ( mph kmh ) Pressure ( in mb ) Visibility ( mi km ) Precip ( " mm )
12:09 am 00:09 Clear with Mist and Fog 39 3.9 39 3.9 100 100 ESE 3 6 30.33 1027 2 3 0.00 0.00
12:22 am 00:22 Clear with Mist and Fog 40 4.4 40 4.4 100 100 Calm 30.33 1027 3 5 0.00 0.00
12:53 am 00:53 Clear 41 5 40 4.4 96 96 Calm 30.32 1027 7 11 0.00 0.00
1:53 am 01:53 Clear with Mist and Fog 40 4.4 40 4.4 100 100 Calm 30.32 1027 5 8 0.00 0.00
1:10 am 01:10 Clear with Mist and Fog 40 4.4 40 4.4 100 100 Calm 30.33 1027 2 3 0.00 0.00
1:19 am 01:19 Clear with Mist and Fog 40 4.4 39 3.9 97 97 Calm 30.33 1027 3 5 0.00 0.00
1:53 am 01:53 Clear 41 5 41 5 100 100 Calm 30.32 1027 8 13 0.00 0.00
2:53 am 02:53 Clear with Mist and Fog 40 4.4 40 4.4 100 100 Calm 30.33 1027 4 6 0.00 0.00
3:03 am 03:03 Clear with Mist and Fog 40 4.4 40 4.4 100 100 Calm 30.33 1027 3 4 0.00 0.00
3:10 am 03:10 Clear with Mist and Fog 40 4.4 40 4.4 100 100 Calm 30.30 1026 4 6 0.00 0.00
3:53 am 03:53 Clear with Mist and Fog 40 4.4 40 4.4 100 100 NE 3 6 30.29 1026 4 6 0.00 0.00
4:53 am 04:53 Clear 41 5 41 5 100 100 Calm 30.30 1026 10 16 0.00 0.00
5:53 am 05:53 Clear 40 4.4 39 3.9 97 97 Calm 30.31 1026 10 16 0.00 0.00
6:53 am 06:53 Clear 40 4.4 40 4.4 100 100 Calm 30.29 1026 9 14 0.00 0.00
7:53 am 07:53 Sunny 40 4.4 40 4.4 100 100 Calm 30.30 1026 10 16 0.00 0.00
8:53 am 08:53 Sunny 47 8.3 44 6.7 90 90 Calm 30.30 1026 10 16 0.00 0.00
9:53 am 09:53 Mostly Sunny 52 11.1 41 5 66 66 S 6 9 30.27 1025 10 16 0.00 0.00
10:53 am 10:53 Sunny 55 12.8 42 5.6 62 62 S 8 13 30.24 1024 10 16 0.00 0.00
11:53 am 11:53 Sunny 57 13.9 43 6.1 60 60 SSE 10 17 30.20 1023 10 16 0.00 0.00
12:53 pm 12:53 Sunny 59 15 43 6.1 56 56 SSE 9 15 30.14 1021 10 16 0.00 0.00
1:53 pm 13:53 Sunny 62 16.7 43 6.1 50 50 SSE 9 15 30.11 1020 10 16 0.00 0.00
2:53 pm 14:53 Sunny 62 16.7 42 5.6 48 48 SE 9 15 30.08 1019 10 16 0.00 0.00
3:53 pm 15:53 Sunny 61 16.1 42 5.6 50 50 SSE 10 17 30.08 1019 10 16 0.00 0.00
4:53 pm 16:53 Partly Cloudy 60 15.6 43 6.1 53 53 SE 7 11 30.07 1018 10 16 0.00 0.00
5:53 pm 17:53 Cloudy with Light Rain 58 14.4 43 6.1 58 58 SSW 14 22 30.10 1019 10 16 0.00 0.03
6:53 pm 18:53 Cloudy with Light Rain 52 11.1 48 8.9 86 86 Calm 30.07 1018 10 16 0.01 0.25
7:53 pm 19:53 Cloudy with Light Rain 53 11.7 46 7.8 77 77 SW 7 11 30.08 1019 10 16 0.01 0.25
8:53 pm 20:53 Cloudy with Light Rain 51 10.6 48 8.9 89 89 S 5 7 30.07 1018 10 16 0.02 0.51
9:53 pm 21:53 Cloudy with Light Rain 50 10 48 8.9 93 93 SSW 5 7 30.07 1018 8 13 0.05 1.27
10:53 pm 22:53 Cloudy with Light Rain 51 10.6 48 8.9 89 89 S 7 11 30.07 1018 9 14 0.01 0.25
11:53 pm 23:53 Cloudy 51 10.6 48 8.9 89 89 S 6 9 30.05 1018 10 16 0.00 0.03

Powered by AerisWeather